Crestview, FL

8:20 PM CST on January 16, 2018 (GMT -0600)
Sikes

Weather History for KCEW - June, 2013

Change the Weather History Date:

Wednesday, June 12, 2013

  Actual Average Record
Temperature  
Mean Temperature 84 °F -  
Max Temperature 98 °F 91 °F 99 °F (1952)
Min Temperature 71 °F 66 °F 59 °F (1980)
Cooling Degree Days 19    
Growing Degree Days 34 (Base 50)    
Moisture  
Dew Point 71 °F    
Average Humidity 70    
Maximum Humidity 94    
Minimum Humidity 38    
Precipitation  
Precipitation 0.00 in - - ()
Sea Level Pressure  
Sea Level Pressure 30.06 in    
Wind  
Wind Speed 2 mph (WSW)    
Max Wind Speed 9 mph    
Max Gust Speed -    
Visibility 8 miles    
Events      
Averages and records for this station are not official NWS values.
T = Trace of Precipitation, MM = Missing Value Source: NWS Daily Summary

Daily Weather History Graph

Daily Weather History Graph

Search for Another Location

Airport or City:

Trip Planner

Search our weather history database for the weather conditions in past years. The results will help you decide how hot, cold, wet, or windy it might be!

Date:

Astronomy

Jun. 12, 2013 Rise Set
Actual Time 5:42 AM CDT 7:49 PM CDT
Civil Twilight 5:14 AM CDT 8:17 PM CDT
Nautical Twilight 4:41 AM CDT 8:51 PM CDT
Astronomical Twilight 4:04 AM CDT 9:27 PM CDT
Moon 9:10 AM CDT (6/12) 10:38 PM CDT (6/12)
Length of Visible Light 15h 02m
Length of Day
14h 07m
Waxing Crescent, 14% of the Moon is Illuminated
Jun 12
Waxing Crescent
Jun 16
First Quarter
Jun 23
Full
Jun 29
Last Quarter
Jul 8
New

Hourly Weather History & Observations

Time (CDT) Temp. Heat Index Dew Point Humidity Pressure Visibility Wind Dir Wind Speed Gust Speed Precip Events Conditions
12:53 AM 75.9 °F - 72.0 °F 87% 30.07 in 8.0 mi Calm Calm - N/A   Clear
1:53 AM 73.9 °F - 71.1 °F 91% 30.06 in 6.0 mi Calm Calm - N/A   Clear
2:53 AM 73.0 °F - 71.1 °F 93% 30.06 in 6.0 mi Calm Calm - N/A   Clear
3:53 AM 72.0 °F - 70.0 °F 93% 30.05 in 5.0 mi Calm Calm - N/A   Clear
4:53 AM 72.0 °F - 70.0 °F 93% 30.06 in 6.0 mi Calm Calm - N/A   Clear
5:51 AM 71.6 °F - 69.8 °F 94% 30.09 in 2.0 mi South 3.5 mph - N/A   Clear
5:53 AM 73.0 °F - 70.0 °F 90% 30.08 in 2.0 mi South 3.5 mph - N/A   Clear
6:01 AM 73.4 °F - 71.6 °F 94% 30.09 in 4.0 mi Calm Calm - N/A   Clear
6:53 AM 75.9 °F - 73.0 °F 91% 30.09 in 7.0 mi Calm Calm - N/A   Clear
7:53 AM 81.0 °F 86.7 °F 75.0 °F 82% 30.10 in 9.0 mi WNW 8.1 mph - N/A   Clear
8:53 AM 84.9 °F 93.3 °F 75.0 °F 72% 30.09 in 10.0 mi Variable 3.5 mph - N/A   Clear
9:53 AM 88.0 °F 96.5 °F 73.9 °F 63% 30.09 in 10.0 mi NNW 4.6 mph - N/A   Clear
10:53 AM 89.1 °F 96.0 °F 72.0 °F 57% 30.09 in 10.0 mi Variable 3.5 mph - N/A   Scattered Clouds
11:53 AM 91.9 °F 96.9 °F 69.1 °F 47% 30.09 in 10.0 mi Calm Calm - N/A   Partly Cloudy
12:53 PM 93.9 °F 97.0 °F 66.0 °F 40% 30.08 in 10.0 mi Variable 3.5 mph - N/A   Partly Cloudy
1:53 PM 95.0 °F 99.0 °F 66.9 °F 40% 30.06 in 10.0 mi WNW 6.9 mph - N/A   Clear
2:53 PM 96.1 °F 99.9 °F 66.9 °F 38% 30.05 in 10.0 mi NNW 6.9 mph - N/A   Mostly Cloudy
3:53 PM 97.0 °F 102.2 °F 68.0 °F 39% 30.03 in 10.0 mi NNW 8.1 mph - N/A   Scattered Clouds
4:53 PM 97.0 °F 102.2 °F 68.0 °F 39% 30.01 in 10.0 mi Variable 5.8 mph - N/A   Partly Cloudy
5:53 PM 95.0 °F 100.7 °F 69.1 °F 43% 30.00 in 9.0 mi NNE 4.6 mph - N/A   Clear
6:53 PM 89.1 °F 98.0 °F 73.9 °F 61% 30.01 in 9.0 mi South 9.2 mph - N/A   Clear
7:53 PM 87.1 °F 94.5 °F 73.0 °F 63% 30.01 in 10.0 mi SW 8.1 mph - N/A   Clear
8:53 PM 84.0 °F 89.6 °F 72.0 °F 67% 30.01 in 10.0 mi SW 4.6 mph - N/A   Clear
9:53 PM 82.9 °F 88.8 °F 73.0 °F 72% 30.03 in 10.0 mi SW 4.6 mph - N/A   Clear
10:53 PM 81.0 °F 86.2 °F 73.9 °F 79% 30.04 in 9.0 mi SW 3.5 mph - N/A   Clear
11:53 PM 81.0 °F 86.2 °F 73.9 °F 79% 30.03 in 9.0 mi SW 4.6 mph - N/A   Clear